SB KEPS @ AMSAT $ORB26107.1
2Line Orbital Elements 26107.AMSAT
QST de W1STR
AMSAT Orbital Elements for Amateur Satellites in TLE Format
From Orbital Analysis Office
New England Sci-Tech STEM Education Center
Natick MA April 17, 2026
To all radio amateurs
These element sets describe the orbits of various satellites
in use by the amateur radio community. For details see:
www.amsat.org/keplerian-elements-formats/
A daily update of element sets is available at:
www.amsat.org/tle/daily-bulletin.txt
or without bulletin text:
www.amsat.org/tle/dailytle.txt
AO-07
1 07530U 74089B 26106.80566242 -.00000040 00000-0 40452-4 0 9995
2 07530 101.9942 119.4056 0011891 247.5514 296.5364 12.53697138352827
UO-11
1 14781U 84021B 26106.46762199 .00000816 00000-0 88984-4 0 9991
2 14781 97.8007 72.7583 0008500 37.5864 322.5946 14.90633695247934
AO-27
1 22825U 93061C 26106.11685165 .00000043 00000-0 33459-4 0 9991
2 22825 98.6916 173.5417 0007243 284.1856 75.8522 14.30925227698128
FO-29
1 24278U 96046B 26106.87008483 -.00000020 00000-0 18688-4 0 9999
2 24278 98.5316 324.1138 0348834 255.5235 100.6968 13.53271232464874
GO-32
1 25397U 98043D 26106.74199182 .00000024 00000-0 30711-4 0 9998
2 25397 99.0059 97.9572 0002085 58.5198 301.6183 14.24416052442584
ISS
1 25544U 98067A 26106.84451399 .00004242 00000-0 85733-4 0 9990
2 25544 51.6329 243.6903 0006573 315.5681 44.4780 15.48789484562249
NO-44
1 26931U 01043C 26106.55514959 .00000058 00000-0 52474-4 0 9996
2 26931 67.0519 43.6767 0006654 264.3453 95.6890 14.31931581281624
SO-50
1 27607U 02058C 26106.85646821 .00000499 00000-0 77041-4 0 9997
2 27607 64.5523 318.7220 0075550 273.6270 85.6198 14.82910703255364
CO-55
1 27844U 03031E 26106.78011330 .00000189 00000-0 10099-3 0 9990
2 27844 98.6764 116.1074 0009706 11.4859 348.6539 14.24296809182933
RS-22
1 27939U 03042A 26106.83285541 .00000979 00000-0 15935-3 0 9991
2 27939 98.3460 289.4633 0012531 102.0145 21.2126 14.73356460206519
CO-65
1 32785U 08021C 26106.85123189 .00002677 00000-0 17417-3 0 9993
2 32785 97.8247 87.0364 0007452 230.0360 130.0214 15.08865657975940
CO-66
1 32791U 08021J 26106.72514752 .00011304 00000-0 38407-3 0 9995
2 32791 97.7525 101.7944 0004320 133.9152 226.2445 15.30647529977884
RS-30
1 32953U 08025A 26106.77414025 .00000008 00000-0 -14236-4 0 9991
2 32953 82.5070 33.6334 0020605 84.6292 275.7138 12.43177575812064
SRMSAT
1 37841U 11058D 26106.23675398 .00000363 00000-0 52901-4 0 9999
2 37841 19.9721 74.4374 0011613 241.6849 237.7724 14.11560608749058
ZACUBE-1
1 39417U 13066B 26106.47430911 .00002430 00000-0 19290-3 0 9997
2 39417 97.8130 68.4832 0044892 98.0747 262.5573 15.00673871671470
Delfi-N3xt
1 39428U 13066N 26106.52250248 .00005187 00000-0 46091-3 0 9999
2 39428 97.8353 26.9266 0077289 52.7935 308.0306 14.94271348665413
GOMX-1
1 39430U 13066Q 26106.82803810 .00000773 00000-0 12396-3 0 9991
2 39430 97.6536 311.1527 0127565 274.7470 83.9179 14.69235408660904
LO-74
1 39440U 13066AA 26106.42583080 .00001398 00000-0 13513-3 0 9998
2 39440 97.8866 55.1835 0056662 231.2901 128.3245 14.93340613667778
AO-73
1 39444U 13066AE 26106.65557581 .00005674 00000-0 36089-3 0 9998
2 39444 97.8238 76.8736 0038542 54.9890 305.4945 15.08603541670384
DTUSAT-2
1 40030U 14033W 26106.73106359 .00004897 00000-0 27209-3 0 9998
2 40030 98.0867 100.6007 0009835 86.6091 273.6264 15.14189966643380
LILACSAT-2
1 40908U 15049K 26106.82879477 .00011051 00000-0 20265-3 0 9993
2 40908 97.4739 141.4037 0008868 112.1942 248.0251 15.49427699586245
Horyu-4
1 41340U 16012D 26106.49478397 .00083079 00000-0 62803-3 0 9997
2 41340 30.9888 162.0229 0006053 151.3581 208.7407 15.71012090561040
Lapan A3
1 41603U 16040E 26106.89491094 .00002340 00000-0 76398-4 0 9990
2 41603 97.1494 105.0764 0008817 228.5154 131.5332 15.32702946545421
CAS-2T
1 41847U 16066G 26106.45665346 .00000348 00000-0 59010-4 0 9991
2 41847 98.3838 182.8873 0341367 317.0183 40.4792 14.44555786495888
TechnoSat
1 42829U 17042E 26106.80544372 .00001829 00000-0 13423-3 0 9993
2 42829 97.4205 266.8401 0016716 306.0715 53.8963 15.04575174477476
AO-91
1 43017U 17073E 26106.60085503 .00004798 00000-0 21557-3 0 9996
2 43017 97.4792 335.1035 0153559 180.5300 179.5793 15.11608323456084
S-Net D
1 43186U 18014G 26106.69640459 .00003027 00000-0 16064-3 0 9996
2 43186 97.5410 11.8852 0006941 222.7652 137.3041 15.16093490449443
S-Net B
1 43187U 18014H 26106.64065882 .00002811 00000-0 14957-3 0 9992
2 43187 97.5415 11.8145 0007702 218.2823 141.7863 15.16064171449434
S-Net A
1 43188U 18014J 26106.69557470 .00003042 00000-0 16137-3 0 9996
2 43188 97.5425 12.0663 0007554 218.9359 141.1331 15.16100279449445
S-Net C
1 43189U 18014K 26106.64419247 .00002754 00000-0 14660-3 0 9999
2 43189 97.5442 12.0806 0009132 212.2158 147.8517 15.16055972447987
Ten-Koh
1 43677U 18084G 26106.46723905 .00001860 00000-0 14432-3 0 9991
2 43677 98.0792 296.2351 0008916 329.2109 30.8591 15.02676412406899
PO-101
1 43678U 18084H 26106.81084220 .00001198 00000-0 10102-3 0 9995
2 43678 98.1048 300.4178 0013788 15.9131 344.2521 15.00151340407013
QO-100
1 43700U 18090A 26106.65948295 .00000151 00000-0 00000+0 0 9991
2 43700 0.0154 245.5706 0001136 161.3276 61.1070 1.00272614 27065
MinXSS-2
1 43758U 18099A 26106.62159983 .00019172 00000-0 43644-3 0 9996
2 43758 97.4571 181.2880 0009310 128.6955 231.5127 15.42960978404627
AO-95
1 43770U 18099N 26106.43991084 .00006404 00000-0 25638-3 0 9992
2 43770 97.4438 166.9622 0008748 194.9739 165.1241 15.25376721403803
SNUSat 2
1 43782U 18099AA 26106.11170095 .00004585 00000-0 21030-3 0 9991
2 43782 97.4121 160.4755 0011586 147.1252 213.0707 15.20875776403590
SnugLite
1 43784U 18099AC 26106.39332667 .00006287 00000-0 24855-3 0 9997
2 43784 97.3932 161.3267 0004290 132.1628 227.9975 15.25827595403899
ITASat 1
1 43786U 18099AE 26106.41418573 .00003901 00000-0 19339-3 0 9994
2 43786 97.4092 159.1767 0012352 200.8082 159.2651 15.18260159403532
EAGLET 1
1 43790U 18099AJ 26106.86481713 .00002332 00000-0 13759-3 0 9991
2 43790 97.4295 158.1602 0011024 189.3822 170.7205 15.12467826403062
ESEO
1 43792U 18099AL 26106.84452250 .00001127 00000-0 85527-4 0 9999
2 43792 97.4045 146.8476 0012309 174.8526 185.2830 15.04062345402586
JO-97
1 43803U 18099AX 26106.13633634 .00009640 00000-0 31721-3 0 9995
2 43803 97.4187 168.8347 0007364 127.2922 232.8992 15.31697363404128
Suomi 100
1 43804U 18099AY 26106.43932022 .00006556 00000-0 24955-3 0 9996
2 43804 97.4246 167.1128 0011646 134.4423 225.7771 15.27023675403992
ISAT
1 43879U 18111D 26106.59469111 .00041089 00000-0 58697-3 0 9994
2 43879 97.5910 37.5607 0007784 135.3048 224.8835 15.56116208401565
UWE-4
1 43880U 18111E 26106.71974515 .00017922 00000-0 41496-3 0 9997
2 43880 97.5863 32.4646 0008586 167.3462 192.8002 15.42477857401292
Sparrow
1 43881U 18111F 26106.76215787 .00052764 00000-0 62260-3 0 9997
2 43881 97.6131 42.5005 0005357 143.0101 217.1526 15.61174849401756
Prox-1
1 44339U 19036A 26106.84131889 .00007706 00000-0 76741-3 0 9997
2 44339 23.9945 163.5574 0006708 49.6523 310.4561 14.89143258364310
Taurus 1
1 44530U 19059C 26106.85084199 .00002843 00000-0 46775-3 0 9998
2 44530 98.6354 267.9241 0009762 142.0032 218.1863 14.71403364349626
TO-108
1 44881U 19093C 26106.85537198 -.00000180 00000-0 -14336-4 0 9990
2 44881 97.7562 180.5793 0012171 291.9880 68.0043 14.86418057342302
RS-44
1 44909U 19096E 26106.47666898 .00000002 00000-0 -29956-4 0 9998
2 44909 82.5263 20.7099 0216439 288.8111 68.9625 12.79747884294452
SALSAT
1 46495U 20068K 26106.57607044 .00004776 00000-0 17294-3 0 9992
2 46495 97.8862 105.9354 0010820 149.7925 210.3939 15.28882964305946
CSS (TIANHE-1)
1 48274U 21035A 26106.76755394 .00015996 00000-0 17822-3 0 9990
2 48274 41.4683 336.1456 0005888 221.8433 138.1956 15.62454512283565
CUTE
1 49263U 21088D 26106.22698882 .00057607 00000-0 42207-3 0 9996
2 49263 97.4202 200.6909 0003101 192.8273 167.2912 15.73006353252766
TeikyoSat 4
1 49396U 21102B 26106.60008373 .00000879 00000-0 58912-4 0 9992
2 49396 97.3734 138.4692 0013165 139.4931 220.7281 15.09286974243434
Z-Sat
1 49399U 21102E 26106.82905010 .00001958 00000-0 99780-4 0 9990
2 49399 97.3395 144.0158 0018530 100.7570 259.5751 15.17788024244133
KOSEN 1
1 49402U 21102H 26106.84683837 .00004735 00000-0 18646-3 0 9994
2 49402 97.3255 150.2142 0015441 68.5190 291.7693 15.25981743244665
HO-113
1 50466U 21131B 26106.82556955 .00000324 00000-0 11388-3 0 9992
2 50466 98.4950 199.5592 0002863 287.4349 72.6526 14.41297095226273
SNUGLITE 2
1 52899U 22065F 26106.66770595 .00000617 00000-0 12628-3 0 9994
2 52899 98.2109 251.6415 0006911 207.9485 152.1347 14.64228263201992
UmKA 1 (RS40S)
1 57172U 23091G 26106.82317694 .00003580 00000-0 16855-3 0 9996
2 57172 97.5106 165.7720 0012079 340.5018 19.5753 15.20129990154682
CubeBel-2 (EU11S)
1 57175U 23091K 26106.83899708 .00007779 00000-0 28958-3 0 9992
2 57175 97.5103 169.5619 0009066 339.6427 20.4449 15.27729674154939
RS-38S
1 57189U 23091Z 26106.80605972 .00009267 00000-0 28299-3 0 9994
2 57189 97.5135 175.1432 0005891 289.5310 70.5296 15.34113657155271
SONATE-2
1 59112U 24043Q 26106.35524219 .00022415 00000-0 34275-3 0 9995
2 59112 97.5459 253.2023 0007256 74.0118 286.1934 15.54378993118273
GRBBeta
1 60237U 24128C 26106.61983524 .00002321 00000-0 16871-3 0 9992
2 60237 61.9893 72.1901 0047928 121.6814 238.8966 15.06143194 96998
Curium One
1 60242U 24128H 26106.60074895 .00004549 00000-0 27322-3 0 9996
2 60242 61.9787 63.7340 0047549 118.0234 242.5683 15.11525906 97141
ROBUSTA-3A
1 60243U 24128J 26106.59809221 .00004326 00000-0 26609-3 0 9994
2 60243 61.9862 65.8806 0048657 115.4480 245.1661 15.10709317 97112
CatSat
1 60246U 24125J 26106.56863223 .00030621 00000-0 49418-3 0 9993
2 60246 97.2159 318.5515 0025351 53.9105 306.4490 15.52471372 97818
HYPERVIEW-1G (RS66S)
1 61772U 24199AP 26106.83768131 .00049604 00000-0 53007-3 0 9991
2 61772 97.3005 344.0487 0009312 132.3480 227.8570 15.63712431125052
AO-123
1 61781U 24199AY 26106.89586420 .00005056 00000-0 15191-3 0 9991
2 61781 97.3090 336.1309 0014618 162.1116 198.0645 15.34768629124524
